owner,sensor,date,latitude,longitude,vertical_datum,sea_water_temperature,qcFlag 
SCCF RECON,ioos:station:SCCF:18:1,2019-03-01T05:00:00Z,26.6955,-81.8138,1.49,24.94,11111222 
SCCF RECON,ioos:station:SCCF:18:1,2019-03-01T06:00:00Z,26.6955,-81.8138,1.49,25.06,11111222 
SCCF RECON,ioos:station:SCCF:18:1,2019-03-01T07:00:00Z,26.6955,-81.8138,1.49,25.35,11111222 
SCCF RECON,ioos:station:SCCF:18:1,2019-03-01T08:00:00Z,26.6955,-81.8138,1.49,25.28,11111222 
SCCF RECON,ioos:station:SCCF:18:1,2019-03-01T09:00:00Z,26.6955,-81.8138,1.49,25.54,11111222 
SCCF RECON,ioos:station:SCCF:18:1,2019-03-01T10:00:00Z,26.6955,-81.8138,1.49,25.3,11111222 
SCCF RECON,ioos:station:SCCF:18:1,2019-03-01T11:00:00Z,26.6955,-81.8138,1.49,25.38,11111222 
SCCF RECON,ioos:station:SCCF:18:1,2019-03-01T12:00:00Z,26.6955,-81.8138,1.49,25.58,11111222 
SCCF RECON,ioos:station:SCCF:18:1,2019-03-01T13:00:00Z,26.6955,-81.8138,1.49,25.57,11111222 
SCCF RECON,ioos:station:SCCF:18:1,2019-03-01T14:00:00Z,26.6955,-81.8138,1.49,25.64,11111222 
SCCF RECON,ioos:station:SCCF:18:1,2019-03-01T15:00:00Z,26.6955,-81.8138,1.49,25.74,11111222 
SCCF RECON,ioos:station:SCCF:18:1,2019-03-01T16:00:00Z,26.6955,-81.8138,1.49,25.42,11111222 
SCCF RECON,ioos:station:SCCF:18:1,2019-03-01T17:00:00Z,26.6955,-81.8138,1.49,25.82,11111222 
SCCF RECON,ioos:station:SCCF:18:1,2019-03-01T18:00:00Z,26.6955,-81.8138,1.49,25.87,11111222 
SCCF RECON,ioos:station:SCCF:18:1,2019-03-01T20:00:00Z,26.6955,-81.8138,1.49,26.63,11111222 
SCCF RECON,ioos:station:SCCF:18:1,2019-03-01T21:00:00Z,26.6955,-81.8138,1.49,25.56,11111222 
SCCF RECON,ioos:station:SCCF:18:1,2019-03-01T22:00:00Z,26.6955,-81.8138,1.49,25.93,11111222 
SCCF RECON,ioos:station:SCCF:18:1,2019-03-01T23:00:00Z,26.6955,-81.8138,1.49,25.87,11111222 
SCCF RECON,ioos:station:SCCF:18:1,2019-03-02T05:00:00Z,26.6955,-81.8138,1.49,25.48,11111222 
SCCF RECON,ioos:station:SCCF:18:1,2019-03-02T06:00:00Z,26.6955,-81.8138,1.49,25.71,11111222 
SCCF RECON,ioos:station:SCCF:18:1,2019-03-02T07:00:00Z,26.6955,-81.8138,1.49,25.46,11111222 
SCCF RECON,ioos:station:SCCF:18:1,2019-03-02T08:00:00Z,26.6955,-81.8138,1.49,26.1,11111222 
SCCF RECON,ioos:station:SCCF:18:1,2019-03-02T09:00:00Z,26.6955,-81.8138,1.49,26.1,11111222 
SCCF RECON,ioos:station:SCCF:18:1,2019-03-02T10:00:00Z,26.6955,-81.8138,1.49,25.95,11111222 
SCCF RECON,ioos:station:SCCF:18:1,2019-03-02T11:00:00Z,26.6955,-81.8138,1.49,26.09,11111222 
SCCF RECON,ioos:station:SCCF:18:1,2019-03-02T12:00:00Z,26.6955,-81.8138,1.49,25.97,11111222 
SCCF RECON,ioos:station:SCCF:18:1,2019-03-02T13:00:00Z,26.6955,-81.8138,1.49,26.44,11111222 
SCCF RECON,ioos:station:SCCF:18:1,2019-03-02T14:00:00Z,26.6955,-81.8138,1.49,26.22,11111222 
SCCF RECON,ioos:station:SCCF:18:1,2019-03-02T15:00:00Z,26.6955,-81.8138,1.49,25.36,11111222 
SCCF RECON,ioos:station:SCCF:18:1,2019-03-02T16:00:00Z,26.6955,-81.8138,1.49,26.57,11111222 
SCCF RECON,ioos:station:SCCF:18:1,2019-03-02T17:00:00Z,26.6955,-81.8138,1.49,25.54,11111222 
SCCF RECON,ioos:station:SCCF:18:1,2019-03-02T18:00:00Z,26.6955,-81.8138,1.49,25.96,11111222 
SCCF RECON,ioos:station:SCCF:18:1,2019-03-02T19:00:00Z,26.6955,-81.8138,1.49,26.16,11111222 
SCCF RECON,ioos:station:SCCF:18:1,2019-03-02T20:00:00Z,26.6955,-81.8138,1.49,26.29,11111222 
SCCF RECON,ioos:station:SCCF:18:1,2019-03-02T21:00:00Z,26.6955,-81.8138,1.49,25.33,11111222 
SCCF RECON,ioos:station:SCCF:18:1,2019-03-02T22:00:00Z,26.6955,-81.8138,1.49,26.58,11111222 
SCCF RECON,ioos:station:SCCF:18:1,2019-03-02T23:00:00Z,26.6955,-81.8138,1.49,27.12,11111222 
SCCF RECON,ioos:station:SCCF:18:1,2019-03-03T05:00:00Z,26.6955,-81.8138,1.49,25.24,11111222 
SCCF RECON,ioos:station:SCCF:18:1,2019-03-03T06:00:00Z,26.6955,-81.8138,1.49,25.49,11111222 
SCCF RECON,ioos:station:SCCF:18:1,2019-03-03T07:00:00Z,26.6955,-81.8138,1.49,25.96,11111222 
SCCF RECON,ioos:station:SCCF:18:1,2019-03-03T08:00:00Z,26.6955,-81.8138,1.49,26.08,11111222 
SCCF RECON,ioos:station:SCCF:18:1,2019-03-03T09:00:00Z,26.6955,-81.8138,1.49,26.64,11111222 
SCCF RECON,ioos:station:SCCF:18:1,2019-03-03T10:00:00Z,26.6955,-81.8138,1.49,26.59,11111222 
SCCF RECON,ioos:station:SCCF:18:1,2019-03-03T11:00:00Z,26.6955,-81.8138,1.49,26.7,11111222 
SCCF RECON,ioos:station:SCCF:18:1,2019-03-03T12:00:00Z,26.6955,-81.8138,1.49,26.84,11111222 
SCCF RECON,ioos:station:SCCF:18:1,2019-03-03T13:00:00Z,26.6955,-81.8138,1.49,26.7,11111222 
SCCF RECON,ioos:station:SCCF:18:1,2019-03-03T14:00:00Z,26.6955,-81.8138,1.49,26.82,11111222 
SCCF RECON,ioos:station:SCCF:18:1,2019-03-03T15:00:00Z,26.6955,-81.8138,1.49,27.68,11111222 
SCCF RECON,ioos:station:SCCF:18:1,2019-03-03T16:00:00Z,26.6955,-81.8138,1.49,26.76,11111222 
SCCF RECON,ioos:station:SCCF:18:1,2019-03-03T17:00:00Z,26.6955,-81.8138,1.49,26.84,11111222 
SCCF RECON,ioos:station:SCCF:18:1,2019-03-03T18:00:00Z,26.6955,-81.8138,1.49,26.97,11111222 
SCCF RECON,ioos:station:SCCF:18:1,2019-03-03T19:00:00Z,26.6955,-81.8138,1.49,26.46,11111222 
SCCF RECON,ioos:station:SCCF:18:1,2019-03-03T20:00:00Z,26.6955,-81.8138,1.49,26.89,11111222 
SCCF RECON,ioos:station:SCCF:18:1,2019-03-03T21:00:00Z,26.6955,-81.8138,1.49,26.61,11111222 
SCCF RECON,ioos:station:SCCF:18:1,2019-03-03T22:00:00Z,26.6955,-81.8138,1.49,26.33,11111222 
SCCF RECON,ioos:station:SCCF:18:1,2019-03-03T23:00:00Z,26.6955,-81.8138,1.49,26.62,11111222 
SCCF RECON,ioos:station:SCCF:18:1,2019-03-04T05:00:00Z,26.6955,-81.8138,1.49,25.89,11111222 
SCCF RECON,ioos:station:SCCF:18:1,2019-03-04T06:00:00Z,26.6955,-81.8138,1.49,25.89,11111222 
SCCF RECON,ioos:station:SCCF:18:1,2019-03-04T07:00:00Z,26.6955,-81.8138,1.49,25.75,11111222 
SCCF RECON,ioos:station:SCCF:18:1,2019-03-04T08:00:00Z,26.6955,-81.8138,1.49,25.72,11111222 
SCCF RECON,ioos:station:SCCF:18:1,2019-03-04T09:00:00Z,26.6955,-81.8138,1.49,25.87,11111222 
SCCF RECON,ioos:station:SCCF:18:1,2019-03-04T10:00:00Z,26.6955,-81.8138,1.49,26.0,11111222 
SCCF RECON,ioos:station:SCCF:18:1,2019-03-04T11:00:00Z,26.6955,-81.8138,1.49,26.22,11111222 
SCCF RECON,ioos:station:SCCF:18:1,2019-03-04T12:00:00Z,26.6955,-81.8138,1.49,26.74,11111222 
SCCF RECON,ioos:station:SCCF:18:1,2019-03-04T13:00:00Z,26.6955,-81.8138,1.49,27.04,11111222 
SCCF RECON,ioos:station:SCCF:18:1,2019-03-04T14:00:00Z,26.6955,-81.8138,1.49,27.23,11111222 
SCCF RECON,ioos:station:SCCF:18:1,2019-03-04T15:00:00Z,26.6955,-81.8138,1.49,27.07,11111222 
SCCF RECON,ioos:station:SCCF:18:1,2019-03-04T16:00:00Z,26.6955,-81.8138,1.49,26.24,11111222 
SCCF RECON,ioos:station:SCCF:18:1,2019-03-04T17:00:00Z,26.6955,-81.8138,1.49,26.31,11111222 
SCCF RECON,ioos:station:SCCF:18:1,2019-03-04T18:00:00Z,26.6955,-81.8138,1.49,26.26,11111222 
SCCF RECON,ioos:station:SCCF:18:1,2019-03-04T19:00:00Z,26.6955,-81.8138,1.49,25.56,11111222 
SCCF RECON,ioos:station:SCCF:18:1,2019-03-04T20:00:00Z,26.6955,-81.8138,1.49,26.06,11111222 
SCCF RECON,ioos:station:SCCF:18:1,2019-03-04T21:00:00Z,26.6955,-81.8138,1.49,26.34,11111222 
SCCF RECON,ioos:station:SCCF:18:1,2019-03-04T22:00:00Z,26.6955,-81.8138,1.49,26.54,11111222 
SCCF RECON,ioos:station:SCCF:18:1,2019-03-04T23:00:00Z,26.6955,-81.8138,1.49,26.36,11111222 
SCCF RECON,ioos:station:SCCF:18:1,2019-03-05T05:00:00Z,26.6955,-81.8138,1.49,26.69,11111222 
SCCF RECON,ioos:station:SCCF:18:1,2019-03-05T06:00:00Z,26.6955,-81.8138,1.49,26.62,11111222 
SCCF RECON,ioos:station:SCCF:18:1,2019-03-05T07:00:00Z,26.6955,-81.8138,1.49,26.56,11111222 
SCCF RECON,ioos:station:SCCF:18:1,2019-03-05T08:00:00Z,26.6955,-81.8138,1.49,26.52,11111222 
SCCF RECON,ioos:station:SCCF:18:1,2019-03-05T09:00:00Z,26.6955,-81.8138,1.49,26.51,11111222 
SCCF RECON,ioos:station:SCCF:18:1,2019-03-05T10:00:00Z,26.6955,-81.8138,1.49,26.68,11111222 
SCCF RECON,ioos:station:SCCF:18:1,2019-03-05T11:00:00Z,26.6955,-81.8138,1.49,26.67,11111222 
SCCF RECON,ioos:station:SCCF:18:1,2019-03-05T12:00:00Z,26.6955,-81.8138,1.49,26.49,11111222 
SCCF RECON,ioos:station:SCCF:18:1,2019-03-05T13:00:00Z,26.6955,-81.8138,1.49,26.79,11111222 
SCCF RECON,ioos:station:SCCF:18:1,2019-03-05T14:00:00Z,26.6955,-81.8138,1.49,26.64,11111222 
SCCF RECON,ioos:station:SCCF:18:1,2019-03-05T15:00:00Z,26.6955,-81.8138,1.49,27.05,11111222 
SCCF RECON,ioos:station:SCCF:18:1,2019-03-05T16:00:00Z,26.6955,-81.8138,1.49,27.21,11111222 
SCCF RECON,ioos:station:SCCF:18:1,2019-03-05T17:00:00Z,26.6955,-81.8138,1.49,25.84,11111222 
SCCF RECON,ioos:station:SCCF:18:1,2019-03-05T18:00:00Z,26.6955,-81.8138,1.49,26.02,11111222 
SCCF RECON,ioos:station:SCCF:18:1,2019-03-05T19:00:00Z,26.6955,-81.8138,1.49,26.04,11111222 
SCCF RECON,ioos:station:SCCF:18:1,2019-03-05T20:00:00Z,26.6955,-81.8138,1.49,26.21,11111222 
SCCF RECON,ioos:station:SCCF:18:1,2019-03-05T21:00:00Z,26.6955,-81.8138,1.49,26.19,11111222 
SCCF RECON,ioos:station:SCCF:18:1,2019-03-05T23:00:00Z,26.6955,-81.8138,1.49,26.21,11111222 
SCCF RECON,ioos:station:SCCF:18:1,2019-03-06T05:00:00Z,26.6955,-81.8138,1.49,25.7,11111222 
SCCF RECON,ioos:station:SCCF:18:1,2019-03-06T06:00:00Z,26.6955,-81.8138,1.49,25.54,11111222 
SCCF RECON,ioos:station:SCCF:18:1,2019-03-06T07:00:00Z,26.6955,-81.8138,1.49,25.19,11111222 
SCCF RECON,ioos:station:SCCF:18:1,2019-03-06T08:00:00Z,26.6955,-81.8138,1.49,24.76,11111222 
SCCF RECON,ioos:station:SCCF:18:1,2019-03-06T09:00:00Z,26.6955,-81.8138,1.49,24.58,11111222 
SCCF RECON,ioos:station:SCCF:18:1,2019-03-06T10:00:00Z,26.6955,-81.8138,1.49,24.78,11111222 
SCCF RECON,ioos:station:SCCF:18:1,2019-03-06T11:00:00Z,26.6955,-81.8138,1.49,24.88,11111222 
SCCF RECON,ioos:station:SCCF:18:1,2019-03-06T12:00:00Z,26.6955,-81.8138,1.49,25.15,11111222 
SCCF RECON,ioos:station:SCCF:18:1,2019-03-06T13:00:00Z,26.6955,-81.8138,1.49,24.81,11111222 
SCCF RECON,ioos:station:SCCF:18:1,2019-03-06T14:00:00Z,26.6955,-81.8138,1.49,24.73,11111222 
SCCF RECON,ioos:station:SCCF:18:1,2019-03-06T15:00:00Z,26.6955,-81.8138,1.49,24.67,11111222 
SCCF RECON,ioos:station:SCCF:18:1,2019-03-06T16:00:00Z,26.6955,-81.8138,1.49,25.1,11111222 
SCCF RECON,ioos:station:SCCF:18:1,2019-03-06T17:00:00Z,26.6955,-81.8138,1.49,24.96,11111222 
SCCF RECON,ioos:station:SCCF:18:1,2019-03-06T18:00:00Z,26.6955,-81.8138,1.49,24.99,11111222 
SCCF RECON,ioos:station:SCCF:18:1,2019-03-06T19:00:00Z,26.6955,-81.8138,1.49,24.64,11111222 
SCCF RECON,ioos:station:SCCF:18:1,2019-03-06T20:00:00Z,26.6955,-81.8138,1.49,25.08,11111222 
SCCF RECON,ioos:station:SCCF:18:1,2019-03-06T21:00:00Z,26.6955,-81.8138,1.49,25.07,11111222 
SCCF RECON,ioos:station:SCCF:18:1,2019-03-06T22:00:00Z,26.6955,-81.8138,1.49,24.96,11111222 
SCCF RECON,ioos:station:SCCF:18:1,2019-03-06T23:00:00Z,26.6955,-81.8138,1.49,24.73,11111222 
SCCF RECON,ioos:station:SCCF:18:1,2019-03-07T05:00:00Z,26.6955,-81.8138,1.49,24.29,11111222 
SCCF RECON,ioos:station:SCCF:18:1,2019-03-07T06:00:00Z,26.6955,-81.8138,1.49,23.7,11111222 
SCCF RECON,ioos:station:SCCF:18:1,2019-03-07T07:00:00Z,26.6955,-81.8138,1.49,22.93,11111222 
SCCF RECON,ioos:station:SCCF:18:1,2019-03-07T08:00:00Z,26.6955,-81.8138,1.49,22.78,11111222 
SCCF RECON,ioos:station:SCCF:18:1,2019-03-07T09:00:00Z,26.6955,-81.8138,1.49,22.35,11111222 
SCCF RECON,ioos:station:SCCF:18:1,2019-03-07T10:00:00Z,26.6955,-81.8138,1.49,22.38,11111222 
SCCF RECON,ioos:station:SCCF:18:1,2019-03-07T11:00:00Z,26.6955,-81.8138,1.49,22.25,11111222 
SCCF RECON,ioos:station:SCCF:18:1,2019-03-07T12:00:00Z,26.6955,-81.8138,1.49,23.25,11111222 
SCCF RECON,ioos:station:SCCF:18:1,2019-03-07T13:00:00Z,26.6955,-81.8138,1.49,23.67,11111222 
SCCF RECON,ioos:station:SCCF:18:1,2019-03-07T14:00:00Z,26.6955,-81.8138,1.49,23.5,11111222 
SCCF RECON,ioos:station:SCCF:18:1,2019-03-07T15:00:00Z,26.6955,-81.8138,1.49,23.77,11111222 
SCCF RECON,ioos:station:SCCF:18:1,2019-03-07T16:00:00Z,26.6955,-81.8138,1.49,24.06,11111222 
SCCF RECON,ioos:station:SCCF:18:1,2019-03-07T17:00:00Z,26.6955,-81.8138,1.49,24.33,11111222 
SCCF RECON,ioos:station:SCCF:18:1,2019-03-07T18:00:00Z,26.6955,-81.8138,1.49,23.9,11111222 
SCCF RECON,ioos:station:SCCF:18:1,2019-03-07T19:00:00Z,26.6955,-81.8138,1.49,24.4,11111222 
SCCF RECON,ioos:station:SCCF:18:1,2019-03-07T20:00:00Z,26.6955,-81.8138,1.49,24.78,11111222 
SCCF RECON,ioos:station:SCCF:18:1,2019-03-07T21:00:00Z,26.6955,-81.8138,1.49,24.45,11111222 
SCCF RECON,ioos:station:SCCF:18:1,2019-03-07T22:00:00Z,26.6955,-81.8138,1.49,24.04,11111222 
SCCF RECON,ioos:station:SCCF:18:1,2019-03-07T23:00:00Z,26.6955,-81.8138,1.49,24.65,11111222 
SCCF RECON,ioos:station:SCCF:18:1,2019-03-08T05:00:00Z,26.6955,-81.8138,1.49,24.42,11111222 
SCCF RECON,ioos:station:SCCF:18:1,2019-03-08T06:00:00Z,26.6955,-81.8138,1.49,24.39,11111222 
SCCF RECON,ioos:station:SCCF:18:1,2019-03-08T07:00:00Z,26.6955,-81.8138,1.49,23.33,11111222 
SCCF RECON,ioos:station:SCCF:18:1,2019-03-08T08:00:00Z,26.6955,-81.8138,1.49,23.27,11111222 
SCCF RECON,ioos:station:SCCF:18:1,2019-03-08T09:00:00Z,26.6955,-81.8138,1.49,22.42,11111222 
SCCF RECON,ioos:station:SCCF:18:1,2019-03-08T10:00:00Z,26.6955,-81.8138,1.49,22.3,11111222 
SCCF RECON,ioos:station:SCCF:18:1,2019-03-08T11:00:00Z,26.6955,-81.8138,1.49,22.79,11111222 
SCCF RECON,ioos:station:SCCF:18:1,2019-03-08T12:00:00Z,26.6955,-81.8138,1.49,22.8,11111222 
SCCF RECON,ioos:station:SCCF:18:1,2019-03-08T13:00:00Z,26.6955,-81.8138,1.49,23.28,11111222 
SCCF RECON,ioos:station:SCCF:18:1,2019-03-08T14:00:00Z,26.6955,-81.8138,1.49,23.81,11111222 
SCCF RECON,ioos:station:SCCF:18:1,2019-03-08T16:00:00Z,26.6955,-81.8138,1.49,24.2,11111222 
SCCF RECON,ioos:station:SCCF:18:1,2019-03-08T17:00:00Z,26.6955,-81.8138,1.49,24.74,11111222 
SCCF RECON,ioos:station:SCCF:18:1,2019-03-08T18:00:00Z,26.6955,-81.8138,1.49,24.47,11111222 
SCCF RECON,ioos:station:SCCF:18:1,2019-03-08T19:00:00Z,26.6955,-81.8138,1.49,24.63,11111222 
SCCF RECON,ioos:station:SCCF:18:1,2019-03-08T20:00:00Z,26.6955,-81.8138,1.49,24.59,11111222 
SCCF RECON,ioos:station:SCCF:18:1,2019-03-08T21:00:00Z,26.6955,-81.8138,1.49,24.1,11111222 
SCCF RECON,ioos:station:SCCF:18:1,2019-03-08T22:00:00Z,26.6955,-81.8138,1.49,23.96,11111222 
SCCF RECON,ioos:station:SCCF:18:1,2019-03-08T23:00:00Z,26.6955,-81.8138,1.49,24.24,11111222 
SCCF RECON,ioos:station:SCCF:18:1,2019-03-09T05:00:00Z,26.6955,-81.8138,1.49,25.29,11111222 
SCCF RECON,ioos:station:SCCF:18:1,2019-03-09T06:00:00Z,26.6955,-81.8138,1.49,25.36,11111222 
SCCF RECON,ioos:station:SCCF:18:1,2019-03-09T07:00:00Z,26.6955,-81.8138,1.49,24.73,11111222 
SCCF RECON,ioos:station:SCCF:18:1,2019-03-09T08:00:00Z,26.6955,-81.8138,1.49,24.37,11111222 
SCCF RECON,ioos:station:SCCF:18:1,2019-03-09T09:00:00Z,26.6955,-81.8138,1.49,24.16,11111222 
SCCF RECON,ioos:station:SCCF:18:1,2019-03-09T10:00:00Z,26.6955,-81.8138,1.49,23.47,11111222 
SCCF RECON,ioos:station:SCCF:18:1,2019-03-09T11:00:00Z,26.6955,-81.8138,1.49,23.76,11111222 
SCCF RECON,ioos:station:SCCF:18:1,2019-03-09T12:00:00Z,26.6955,-81.8138,1.49,23.96,11111222 
SCCF RECON,ioos:station:SCCF:18:1,2019-03-09T13:00:00Z,26.6955,-81.8138,1.49,24.51,11111222 
SCCF RECON,ioos:station:SCCF:18:1,2019-03-09T14:00:00Z,26.6955,-81.8138,1.49,24.5,11111222 
SCCF RECON,ioos:station:SCCF:18:1,2019-03-09T15:00:00Z,26.6955,-81.8138,1.49,25.08,11111222 
SCCF RECON,ioos:station:SCCF:18:1,2019-03-09T16:00:00Z,26.6955,-81.8138,1.49,25.33,11111222 
SCCF RECON,ioos:station:SCCF:18:1,2019-03-09T17:00:00Z,26.6955,-81.8138,1.49,25.54,11111222 
SCCF RECON,ioos:station:SCCF:18:1,2019-03-09T18:00:00Z,26.6955,-81.8138,1.49,26.07,11111222 
SCCF RECON,ioos:station:SCCF:18:1,2019-03-09T19:00:00Z,26.6955,-81.8138,1.49,25.91,11111222 
SCCF RECON,ioos:station:SCCF:18:1,2019-03-09T20:00:00Z,26.6955,-81.8138,1.49,26.02,11111222 
SCCF RECON,ioos:station:SCCF:18:1,2019-03-09T21:00:00Z,26.6955,-81.8138,1.49,25.96,11111222 
SCCF RECON,ioos:station:SCCF:18:1,2019-03-09T22:00:00Z,26.6955,-81.8138,1.49,25.84,11111222 
SCCF RECON,ioos:station:SCCF:18:1,2019-03-09T23:00:00Z,26.6955,-81.8138,1.49,25.66,11111222 
SCCF RECON,ioos:station:SCCF:18:1,2019-03-10T05:00:00Z,26.6955,-81.8138,1.49,25.65,11111222 
SCCF RECON,ioos:station:SCCF:18:1,2019-03-10T06:00:00Z,26.6955,-81.8138,1.49,25.61,11111222 
SCCF RECON,ioos:station:SCCF:18:1,2019-03-10T07:00:00Z,26.6955,-81.8138,1.49,25.31,11111222 
SCCF RECON,ioos:station:SCCF:18:1,2019-03-10T08:00:00Z,26.6955,-81.8138,1.49,25.2,11111222 
SCCF RECON,ioos:station:SCCF:18:1,2019-03-10T09:00:00Z,26.6955,-81.8138,1.49,24.79,11111222 
SCCF RECON,ioos:station:SCCF:18:1,2019-03-10T10:00:00Z,26.6955,-81.8138,1.49,24.98,11111222 
SCCF RECON,ioos:station:SCCF:18:1,2019-03-10T11:00:00Z,26.6955,-81.8138,1.49,24.89,11111222 
SCCF RECON,ioos:station:SCCF:18:1,2019-03-10T12:00:00Z,26.6955,-81.8138,1.49,24.9,11111222 
SCCF RECON,ioos:station:SCCF:18:1,2019-03-10T13:00:00Z,26.6955,-81.8138,1.49,24.73,11111222 
SCCF RECON,ioos:station:SCCF:18:1,2019-03-10T14:00:00Z,26.6955,-81.8138,1.49,25.39,11111222 
SCCF RECON,ioos:station:SCCF:18:1,2019-03-10T15:00:00Z,26.6955,-81.8138,1.49,25.48,11111222 
SCCF RECON,ioos:station:SCCF:18:1,2019-03-10T16:00:00Z,26.6955,-81.8138,1.49,25.79,11111222 
SCCF RECON,ioos:station:SCCF:18:1,2019-03-10T17:00:00Z,26.6955,-81.8138,1.49,26.34,11111222 
SCCF RECON,ioos:station:SCCF:18:1,2019-03-10T18:00:00Z,26.6955,-81.8138,1.49,24.27,11111222 
SCCF RECON,ioos:station:SCCF:18:1,2019-03-10T19:00:00Z,26.6955,-81.8138,1.49,25.76,11111222 
SCCF RECON,ioos:station:SCCF:18:1,2019-03-10T20:00:00Z,26.6955,-81.8138,1.49,26.24,11111222 
SCCF RECON,ioos:station:SCCF:18:1,2019-03-10T21:00:00Z,26.6955,-81.8138,1.49,25.4,11111222 
SCCF RECON,ioos:station:SCCF:18:1,2019-03-10T22:00:00Z,26.6955,-81.8138,1.49,25.66,11111222 
SCCF RECON,ioos:station:SCCF:18:1,2019-03-11T04:00:00Z,26.6955,-81.8138,1.49,26.08,11111222 
SCCF RECON,ioos:station:SCCF:18:1,2019-03-11T05:00:00Z,26.6955,-81.8138,1.49,25.92,11111222 
SCCF RECON,ioos:station:SCCF:18:1,2019-03-11T06:00:00Z,26.6955,-81.8138,1.49,25.98,11111222 
SCCF RECON,ioos:station:SCCF:18:1,2019-03-11T07:00:00Z,26.6955,-81.8138,1.49,25.64,11111222 
SCCF RECON,ioos:station:SCCF:18:1,2019-03-11T08:00:00Z,26.6955,-81.8138,1.49,25.68,11111222 
SCCF RECON,ioos:station:SCCF:18:1,2019-03-11T09:00:00Z,26.6955,-81.8138,1.49,25.32,11111222 
SCCF RECON,ioos:station:SCCF:18:1,2019-03-11T10:00:00Z,26.6955,-81.8138,1.49,25.39,11111222 
SCCF RECON,ioos:station:SCCF:18:1,2019-03-11T11:00:00Z,26.6955,-81.8138,1.49,25.23,11111222 
SCCF RECON,ioos:station:SCCF:18:1,2019-03-11T12:00:00Z,26.6955,-81.8138,1.49,25.4,11111222 
SCCF RECON,ioos:station:SCCF:18:1,2019-03-11T13:00:00Z,26.6955,-81.8138,1.49,25.65,11111222 
SCCF RECON,ioos:station:SCCF:18:1,2019-03-11T14:00:00Z,26.6955,-81.8138,1.49,26.02,11111222 
SCCF RECON,ioos:station:SCCF:18:1,2019-03-11T15:00:00Z,26.6955,-81.8138,1.49,25.17,11111222 
SCCF RECON,ioos:station:SCCF:18:1,2019-03-11T16:00:00Z,26.6955,-81.8138,1.49,25.82,11111222 
SCCF RECON,ioos:station:SCCF:18:1,2019-03-11T17:00:00Z,26.6955,-81.8138,1.49,25.46,11111222 
SCCF RECON,ioos:station:SCCF:18:1,2019-03-11T18:00:00Z,26.6955,-81.8138,1.49,25.07,11111222 
SCCF RECON,ioos:station:SCCF:18:1,2019-03-11T19:00:00Z,26.6955,-81.8138,1.49,26.33,11111222 
SCCF RECON,ioos:station:SCCF:18:1,2019-03-11T20:00:00Z,26.6955,-81.8138,1.49,25.86,11111222 
SCCF RECON,ioos:station:SCCF:18:1,2019-03-11T21:00:00Z,26.6955,-81.8138,1.49,26.87,11111222 
SCCF RECON,ioos:station:SCCF:18:1,2019-03-11T22:00:00Z,26.6955,-81.8138,1.49,26.63,11111222 
SCCF RECON,ioos:station:SCCF:18:1,2019-03-11T23:00:00Z,26.6955,-81.8138,1.49,25.2,11111222 
SCCF RECON,ioos:station:SCCF:18:1,2019-03-12T04:00:00Z,26.6955,-81.8138,1.49,26.81,11111222 
SCCF RECON,ioos:station:SCCF:18:1,2019-03-12T05:00:00Z,26.6955,-81.8138,1.49,26.7,11111222 
SCCF RECON,ioos:station:SCCF:18:1,2019-03-12T06:00:00Z,26.6955,-81.8138,1.49,26.69,11111222 
SCCF RECON,ioos:station:SCCF:18:1,2019-03-12T07:00:00Z,26.6955,-81.8138,1.49,26.85,11111222 
SCCF RECON,ioos:station:SCCF:18:1,2019-03-12T08:00:00Z,26.6955,-81.8138,1.49,25.9,11111222 
SCCF RECON,ioos:station:SCCF:18:1,2019-03-12T09:00:00Z,26.6955,-81.8138,1.49,25.09,11111222 
SCCF RECON,ioos:station:SCCF:18:1,2019-03-12T10:00:00Z,26.6955,-81.8138,1.49,26.16,11111222 
SCCF RECON,ioos:station:SCCF:18:1,2019-03-12T11:00:00Z,26.6955,-81.8138,1.49,25.72,11111222 
SCCF RECON,ioos:station:SCCF:18:1,2019-03-12T12:00:00Z,26.6955,-81.8138,1.49,25.67,11111222 
SCCF RECON,ioos:station:SCCF:18:1,2019-03-12T13:00:00Z,26.6955,-81.8138,1.49,25.58,11111222 
SCCF RECON,ioos:station:SCCF:18:1,2019-03-12T14:00:00Z,26.6955,-81.8138,1.49,25.76,11111222 
SCCF RECON,ioos:station:SCCF:18:1,2019-03-12T15:00:00Z,26.6955,-81.8138,1.49,25.97,11111222 
SCCF RECON,ioos:station:SCCF:18:1,2019-03-12T16:00:00Z,26.6955,-81.8138,1.49,26.6,11111222 
SCCF RECON,ioos:station:SCCF:18:1,2019-03-12T17:00:00Z,26.6955,-81.8138,1.49,25.39,11111222 
SCCF RECON,ioos:station:SCCF:18:1,2019-03-12T18:00:00Z,26.6955,-81.8138,1.49,25.57,11111222 
SCCF RECON,ioos:station:SCCF:18:1,2019-03-12T19:00:00Z,26.6955,-81.8138,1.49,26.48,11111222 
SCCF RECON,ioos:station:SCCF:18:1,2019-03-12T20:00:00Z,26.6955,-81.8138,1.49,27.15,11111222 
SCCF RECON,ioos:station:SCCF:18:1,2019-03-12T21:00:00Z,26.6955,-81.8138,1.49,27.07,11111222 
SCCF RECON,ioos:station:SCCF:18:1,2019-03-12T23:00:00Z,26.6955,-81.8138,1.49,26.96,11111222 
SCCF RECON,ioos:station:SCCF:18:1,2019-03-13T04:00:00Z,26.6955,-81.8138,1.49,27.21,11111222 
SCCF RECON,ioos:station:SCCF:18:1,2019-03-13T05:00:00Z,26.6955,-81.8138,1.49,27.01,11111222 
SCCF RECON,ioos:station:SCCF:18:1,2019-03-13T06:00:00Z,26.6955,-81.8138,1.49,27.2,11111222 
SCCF RECON,ioos:station:SCCF:18:1,2019-03-13T07:00:00Z,26.6955,-81.8138,1.49,26.9,11111222 
SCCF RECON,ioos:station:SCCF:18:1,2019-03-13T08:00:00Z,26.6955,-81.8138,1.49,26.55,11111222 
SCCF RECON,ioos:station:SCCF:18:1,2019-03-13T09:00:00Z,26.6955,-81.8138,1.49,25.85,11111222 
SCCF RECON,ioos:station:SCCF:18:1,2019-03-13T10:00:00Z,26.6955,-81.8138,1.49,26.0,11111222 
SCCF RECON,ioos:station:SCCF:18:1,2019-03-13T11:00:00Z,26.6955,-81.8138,1.49,25.78,11111222 
SCCF RECON,ioos:station:SCCF:18:1,2019-03-13T12:00:00Z,26.6955,-81.8138,1.49,24.99,11111222 
SCCF RECON,ioos:station:SCCF:18:1,2019-03-13T13:00:00Z,26.6955,-81.8138,1.49,25.65,11111222 
SCCF RECON,ioos:station:SCCF:18:1,2019-03-13T14:00:00Z,26.6955,-81.8138,1.49,25.72,11111222 
SCCF RECON,ioos:station:SCCF:18:1,2019-03-13T15:00:00Z,26.6955,-81.8138,1.49,25.79,11111222 
SCCF RECON,ioos:station:SCCF:18:1,2019-03-13T16:00:00Z,26.6955,-81.8138,1.49,25.98,11111222 
SCCF RECON,ioos:station:SCCF:18:1,2019-03-13T17:00:00Z,26.6955,-81.8138,1.49,26.13,11111222 
SCCF RECON,ioos:station:SCCF:18:1,2019-03-13T18:00:00Z,26.6955,-81.8138,1.49,26.22,11111222 
SCCF RECON,ioos:station:SCCF:18:1,2019-03-13T19:00:00Z,26.6955,-81.8138,1.49,26.43,11111222 
SCCF RECON,ioos:station:SCCF:18:1,2019-03-13T20:00:00Z,26.6955,-81.8138,1.49,26.86,11111222 
SCCF RECON,ioos:station:SCCF:18:1,2019-03-13T21:00:00Z,26.6955,-81.8138,1.49,26.61,11111222 
SCCF RECON,ioos:station:SCCF:18:1,2019-03-13T22:00:00Z,26.6955,-81.8138,1.49,26.87,11111222 
SCCF RECON,ioos:station:SCCF:18:1,2019-03-13T23:00:00Z,26.6955,-81.8138,1.49,26.87,11111222 
SCCF RECON,ioos:station:SCCF:18:1,2019-03-14T04:00:00Z,26.6955,-81.8138,1.49,26.0,11111222 
SCCF RECON,ioos:station:SCCF:18:1,2019-03-14T05:00:00Z,26.6955,-81.8138,1.49,25.91,11111222 
SCCF RECON,ioos:station:SCCF:18:1,2019-03-14T06:00:00Z,26.6955,-81.8138,1.49,25.85,11111222 
SCCF RECON,ioos:station:SCCF:18:1,2019-03-14T07:00:00Z,26.6955,-81.8138,1.49,25.74,11111222 
SCCF RECON,ioos:station:SCCF:18:1,2019-03-14T08:00:00Z,26.6955,-81.8138,1.49,25.52,11111222 
SCCF RECON,ioos:station:SCCF:18:1,2019-03-14T09:00:00Z,26.6955,-81.8138,1.49,25.13,11111222 
SCCF RECON,ioos:station:SCCF:18:1,2019-03-14T10:00:00Z,26.6955,-81.8138,1.49,24.96,11111222 
SCCF RECON,ioos:station:SCCF:18:1,2019-03-14T11:00:00Z,26.6955,-81.8138,1.49,24.87,11111222 
SCCF RECON,ioos:station:SCCF:18:1,2019-03-14T12:00:00Z,26.6955,-81.8138,1.49,24.75,11111222 
SCCF RECON,ioos:station:SCCF:18:1,2019-03-14T13:00:00Z,26.6955,-81.8138,1.49,24.75,11111222 
SCCF RECON,ioos:station:SCCF:18:1,2019-03-14T14:00:00Z,26.6955,-81.8138,1.49,24.64,11111222 
SCCF RECON,ioos:station:SCCF:18:1,2019-03-14T15:00:00Z,26.6955,-81.8138,1.49,24.7,11111222 